Find Starlink 30853

NORAD ID: 58236 Int'l Des: 2023-171 Owner: SPXS Country: US Constellation: starlink operational
LEOCIRCULAR

实时位置

正在加载3D地球...

关于 Starlink 30853

正在加载描述...

即将过境

Passes for default location (London). Set your location on the main map for personalized predictions.

高度历史

Loading altitude history...

两行轨道根数

1 58236U 23171G 26126.57313213 .00000383 00000-0 23455-4 0 9997
2 58236 43.0040 318.6308 0001872 259.6852 100.3789 15.27578390138581
Epoch: May 6, 2026 • Age: 18 hours

当前状态

高度 494.8 km
速度 7.62 km/s
星下点 -42.39°S, 136.39°W
发射日期 Nov 8, 2023
运行时间 2.4 years
类型 internet

技术详情

分类 Payload
质量 730.00 kg
干质量 700.00 kg
总质量 730.00 kg
长度 0.30 m
直径 4.10 m
跨度 29.00 m
形状 Box + pan
制造商 SPXS
平台类型 Starlink V2M
阶段状态 In Orbit
所有者/国家 SPXS/US

Most Searched